TimeEST,TemperatureF,Dew PointF,Humidity,Sea Level PressureIn,VisibilityMPH,Wind Direction,Wind SpeedMPH,Gust SpeedMPH,PrecipitationIn,Events,Conditions,WindDirDegrees,DateUTC
12:51 AM,46.9,41.0,80,29.46,10.0,South,6.9,-,N/A,,Overcast,170,2012-02-23 05:51:00
1:51 AM,46.9,41.0,80,29.43,10.0,South,6.9,-,N/A,,Overcast,170,2012-02-23 06:51:00
2:51 AM,46.9,41.0,80,29.41,10.0,South,3.5,-,N/A,,Overcast,180,2012-02-23 07:51:00
3:51 AM,46.9,41.0,80,29.39,10.0,South,4.6,-,N/A,,Overcast,180,2012-02-23 08:51:00
4:51 AM,48.0,39.9,74,29.39,10.0,Calm,Calm,-,N/A,,Overcast,0,2012-02-23 09:51:00
5:51 AM,50.0,39.0,66,29.40,10.0,WSW,5.8,-,N/A,,Overcast,240,2012-02-23 10:51:00
6:51 AM,50.0,37.0,61,29.41,10.0,SW,10.4,18.4,N/A,,Mostly Cloudy,230,2012-02-23 11:51:00
7:51 AM,52.0,36.0,54,29.43,10.0,WSW,10.4,-,N/A,,Overcast,240,2012-02-23 12:51:00
8:51 AM,53.1,35.1,50,29.46,10.0,West,20.7,29.9,N/A,,Partly Cloudy,260,2012-02-23 13:51:00
9:51 AM,55.0,34.0,45,29.47,10.0,West,16.1,26.5,N/A,,Scattered Clouds,260,2012-02-23 14:51:00
10:51 AM,57.0,30.9,37,29.48,10.0,WNW,20.7,29.9,N/A,,Scattered Clouds,300,2012-02-23 15:51:00
11:51 AM,57.9,27.0,31,29.49,10.0,West,24.2,32.2,N/A,,Mostly Cloudy,260,2012-02-23 16:51:00
12:51 PM,55.9,30.0,37,29.50,10.0,WNW,16.1,20.7,N/A,,Scattered Clouds,300,2012-02-23 17:51:00
1:51 PM,53.1,28.0,38,29.53,10.0,NW,18.4,-,N/A,,Mostly Cloudy,310,2012-02-23 18:51:00
2:51 PM,54.0,25.0,33,29.56,10.0,NNW,18.4,-,N/A,,Scattered Clouds,330,2012-02-23 19:51:00
3:51 PM,54.0,25.0,33,29.61,10.0,NW,17.3,23.0,N/A,,Scattered Clouds,320,2012-02-23 20:51:00
4:51 PM,52.0,25.0,35,29.65,10.0,NW,12.7,-,N/A,,Mostly Cloudy,310,2012-02-23 21:51:00
5:51 PM,51.1,24.1,35,29.68,10.0,North,6.9,-,N/A,,Mostly Cloudy,350,2012-02-23 22:51:00
6:51 PM,48.9,25.0,39,29.70,10.0,NNE,9.2,-,N/A,,Partly Cloudy,20,2012-02-23 23:51:00
7:51 PM,48.0,26.1,42,29.70,10.0,NE,6.9,-,N/A,,Mostly Cloudy,50,2012-02-24 00:51:00
8:51 PM,48.0,25.0,41,29.75,10.0,ENE,6.9,-,N/A,,Mostly Cloudy,70,2012-02-24 01:51:00
9:51 PM,46.0,27.0,47,29.76,10.0,ENE,5.8,-,N/A,,Mostly Cloudy,60,2012-02-24 02:51:00
10:51 PM,45.0,30.0,56,29.77,10.0,ENE,5.8,-,N/A,,Overcast,60,2012-02-24 03:51:00
11:51 PM,45.0,28.0,52,29.75,10.0,ENE,5.8,-,N/A,,Overcast,60,2012-02-24 04:51:00